Location: Bern�tre
(50.1974°N, 2.0915°E)
Time: 05:40:11
(UTC+00:00)

ARGOS - Pass Details

Date: 18 September 2020
Orbit: 821 x 834 km, 98.4° (Epoch: 27 October)

Event Time Altitude Azimuth Distance (km) Brightness Sun altitude
Rises 19:14:51 0° 170° (S) 3,341 6.0 -12.9°
Reaches altitude 10° 19:17:12 10° 173° (S) 2,414 5.3 -13.3°
Maximum altitude 19:22:32 70° 257° (WSW) 875 3.4 -14.1°
Drops below altitude 10° 19:27:56 10° 342° (NNW) 2,438 6.2 -14.9°
Sets 19:30:19 0° 344° (NNW) 3,377 6.9 -15.3°
